Wetbulb
45.17 44.92 39.87 38.57 39.05 39.47 39.00 38.70 37.51 36.31 37.19 36.62 35.42 33.30 33.28 34.92 36.13 35.43 35.38 35.24 35.44 37.42 40.48 41.36 41.52 41.94 42.68 42.93 42.69 42.26 41.62 42.28 42.36 42.02 41.07 40.95 40.44 42.27 42.52 44.03 43.84 43.76 44.68 44.07
44.81 39.84 39.63 39.50 39.16 39.21 38.97 37.80 36.52 35.74 36.11 36.25 33.71 32.21 33.53 34.34 34.33 35.13 34.60 34.55 35.02 37.41 39.06 40.09 40.59 41.18 41.89 41.64 41.62 41.54 41.84 42.26 41.74 41.18 41.05 41.28 41.25 41.98 42.28 43.09 42.41 43.53 44.09 43.95
42.18 38.46 39.53 39.05 38.07 37.83 37.99 36.83 35.22 34.32 34.40 34.51 33.22 32.26 31.61 34.65 34.98 36.05 35.83 35.72 35.77 37.00 37.30 38.47 39.23 40.26 41.58 40.97 40.89 41.29 41.78 41.22 40.64 40.54 41.24 41.19 41.31 41.71 41.24 41.32 40.90 42.92 43.09 42.87
39.83 39.52 37.67 37.96 35.98 36.51 36.25 35.54 34.20 33.88 34.04 34.22 34.24 32.77 31.20 32.65 33.04 34.33 34.75 34.91 34.96 37.00 38.10 38.65 38.74 39.32 41.03 40.66 41.78 41.68 41.61 41.04 41.03 41.29 39.87 38.58 37.93 36.97 38.88 39.74 41.26 42.29 42.02 41.77
37.06 37.73 37.01 36.41 34.77 36.35 34.44 36.09 35.77 35.66 35.32 33.92 32.13 31.40 31.25 30.98 31.11 31.62 33.53 34.14 34.72 37.00 37.63 37.72 38.19 39.55 41.00 40.98 40.96 41.24 41.55 41.51 41.68 40.08 40.17 39.23 37.44 38.43 38.95 39.36 39.85 40.59 40.85 41.33
38.33 39.51 38.02 36.07 36.37 36.09 35.31 36.68 36.26 36.22 35.70 32.71 31.74 31.45 30.78 31.36 29.07 30.87 33.12 33.81 34.26 36.46 37.57 38.27 38.97 40.22 40.45 40.90 40.63 41.00 40.95 40.46 41.15 39.94 39.81 38.74 37.39 37.82 36.69 37.63 38.45 39.09 40.29 41.21
38.52 37.17 38.17 36.62 35.54 36.55 36.21 35.15 35.40 33.41 33.10 31.79 30.45 29.36 31.59 30.37 30.65 31.11 31.35 32.75 34.15 36.69 37.11 37.13 37.17 38.55 39.05 39.11 39.77 40.29 40.41 39.00 40.77 39.85 39.39 38.90 39.15 39.05 37.09 37.09 38.62 37.44 38.77 39.42
39.29 36.81 36.29 36.56 33.94 33.10 33.24 34.09 33.62 28.21 30.39 31.55 29.52 29.11 31.43 32.43 32.40 33.56 33.67 33.81 34.45 35.99 36.84 36.77 37.35 37.94 38.36 38.71 39.50 39.85 39.77 39.09 40.25 40.62 40.23 40.40 40.71 39.53 38.13 38.04 37.84 38.79 38.98 39.64
38.39 35.47 36.04 35.15 34.69 33.90 33.43 33.68 32.67 29.94 29.42 28.09 32.86 30.59 30.51 31.94 33.02 32.97 32.78 33.17 33.13 35.17 36.11 36.37 37.55 36.17 38.22 38.54 39.16 39.61 39.58 39.60 40.18 40.69 40.82 40.40 40.42 39.93 38.81 37.91 39.17 40.08 40.27 40.18
37.44 36.09 35.11 34.58 35.29 35.07 34.84 33.81 31.89 33.32 27.67 27.27 31.97 29.10 31.27 29.63 30.20 31.22 31.56 31.60 32.55 35.14 35.86 36.41 36.66 36.05 38.33 38.89 39.55 40.14 40.28 39.81 40.42 40.81 40.92 40.58 40.51 40.38 39.94 38.71 38.38 39.79 41.00 40.66
37.75 37.40 34.40 35.55 33.83 32.79 33.63 33.01 30.39 31.25 29.20 28.54 27.30 31.40 33.20 30.49 29.88 29.76 31.51 31.91 32.43 34.40 35.32 36.13 36.96 37.29 38.80 38.74 38.95 39.53 39.94 39.91 40.11 40.58 40.76 40.76 40.17 39.74 40.02 39.72 39.21 40.06 40.73 40.61
37.25 38.18 37.13 33.35 32.58 33.45 32.31 31.44 30.91 32.59 27.73 27.31 26.58 29.96 33.25 31.97 31.16 30.58 31.56 32.02 33.24 35.03 35.74 36.34 37.62 38.03 38.21 37.86 37.99 38.86 39.85 39.79 40.11 40.60 40.62 40.21 39.08 38.18 38.72 39.65 39.68 40.42 40.07 40.79
38.11 37.37 37.33 32.68 31.82 32.97 31.98 30.54 29.58 29.22 29.41 26.42 27.57 32.80 32.95 31.99 31.72 32.12 31.45 32.14 33.10 34.79 35.43 36.21 37.69 37.69 37.63 37.38 37.74 38.93 39.72 39.84 40.27 40.32 40.11 40.03 37.65 37.04 37.48 39.59 39.79 39.87 40.21 40.67
38.24 36.41 36.81 37.20 35.24 34.73 30.03 29.04 29.63 30.14 29.65 28.94 29.38 32.69 32.25 31.06 31.12 31.87 31.92 32.11 33.11 34.58 34.75 35.49 36.98 36.03 37.39 37.58 37.90 38.69 39.40 40.12 40.16 40.04 39.71 39.10 37.90 38.18 37.83 39.56 39.53 39.51 39.97 40.12
37.26 36.00 34.40 33.71 32.38 32.30 32.37 31.45 28.91 25.75 31.97 28.92 32.42 28.18 32.76 32.57 30.85 31.23 31.25 31.51 32.39 33.43 33.88 34.61 34.77 33.79 36.55 36.25 37.73 38.78 39.39 39.47 39.88 39.42 39.03 38.57 38.42 40.04 39.31 38.92 39.02 39.81 39.56 39.97
35.78 35.79 33.22 33.07 31.21 31.03 29.96 32.25 31.81 30.47 30.33 28.76 29.88 29.81 32.03 32.05 32.38 31.31 31.09 30.55 31.19 32.56 33.22 34.36 34.40 34.12 35.27 36.32 37.24 38.28 38.66 38.43 39.57 39.09 38.38 39.03 38.15 39.73 39.49 38.61 37.94 38.92 39.24 39.13
35.89 35.66 34.06 35.75 31.05 31.01 31.93 34.01 32.05 31.78 31.85 32.02 29.56 32.97 32.04 31.20 30.59 31.06 30.90 30.34 31.12 32.40 33.18 33.74 33.91 33.93 36.30 36.94 37.40 37.74 38.41 39.33 38.59 38.50 38.60 38.70 38.52 38.63 38.97 39.45 38.67 37.63 38.91 39.09
34.92 34.98 33.29 35.02 33.07 33.19 33.55 32.65 34.49 33.10 33.80 33.38 32.27 31.20 32.00 31.89 32.16 32.09 32.10 30.85 32.04 32.98 33.58 34.71 34.57 34.87 36.95 38.01 38.38 38.86 39.01 38.32 38.16 38.28 38.11 38.37 38.78 38.44 38.68 39.20 38.92 38.68 38.00 37.14
35.55 35.72 32.22 34.40 34.48 37.65 31.09 30.99 31.16 31.72 35.19 35.59 33.82 33.14 32.27 31.71 31.25 30.77 32.17 31.80 32.54 33.95 34.96 35.91 36.31 36.66 37.71 37.84 38.28 38.53 38.28 37.74 38.14 37.92 37.75 37.84 38.41 38.61 38.56 37.21 38.95 39.09 38.54 37.79
33.44 35.39 36.80 31.46 34.60 34.06 36.75 32.97 34.10 34.09 32.84 34.39 34.48 33.04 31.78 31.15 29.05 31.24 31.91 32.32 33.63 34.97 35.96 36.24 36.77 36.24 36.15 37.20 36.96 37.85 37.60 37.20 37.37 37.95 37.94 38.34 38.34 38.42 38.48 37.80 37.76 39.64 39.57 38.45
32.08 32.35 33.32 33.77 35.80 38.96 35.39 33.23 33.81 33.46 36.87 34.94 34.77 34.09 32.37 30.61 32.51 32.31 32.11 32.89 34.32 35.04 35.77 36.92 36.09 34.32 34.92 35.88 36.43 35.61 37.29 36.32 38.43 39.12 38.91 38.61 38.63 37.93 38.76 39.69 38.56 40.01 39.54 39.34
34.44 33.17 32.71 30.41 32.24 35.77 33.63 30.38 33.23 37.74 35.34 35.45 35.02 34.31 33.23 33.06 32.06 31.35 31.66 32.64 33.50 34.31 34.95 35.97 34.65 34.87 35.97 35.65 36.21 35.74 35.06 37.81 39.41 39.37 38.82 38.51 38.92 38.04 37.84 38.95 39.32 40.05 39.72 38.93
34.94 39.71 41.31 39.28 42.16 36.69 35.34 35.87 36.48 37.38 35.76 35.12 35.19 34.71 34.35 32.61 31.95 31.29 32.11 32.78 33.77 34.45 34.68 36.05 34.58 35.82 36.49 36.09 35.88 35.08 35.60 38.26 39.14 39.00 38.58 38.49 39.03 38.38 38.08 37.69 38.57 38.66 39.25 38.26
35.10 35.02 37.09 36.26 38.81 36.95 35.71 35.23 35.41 36.15 36.65 36.36 36.45 35.07 34.27 32.79 31.90 31.69 32.29 33.24 34.16 34.37 33.85 35.28 34.62 35.59 36.38 36.42 36.11 36.04 35.95 38.99 38.92 38.23 38.35 38.61 38.19 38.08 38.05 37.99 38.42 38.40 37.65 37.53
37.34 35.10 37.76 37.59 38.55 34.15 35.45 36.75 35.94 35.03 35.85 35.38 35.61 34.80 34.06 32.94 31.39 32.60 32.59 33.02 34.14 34.10 34.18 34.94 34.91 35.67 36.43 37.14 36.06 35.99 36.40 39.05 38.56 38.29 38.32 38.16 38.27 37.87 37.67 37.77 37.12 37.30 38.32 37.30
35.50 38.83 38.67 42.80 43.30 43.08 41.01 37.76 36.83 34.41 34.35 35.01 33.94 33.23 33.58 32.85 32.45 33.10 33.04 33.76 34.33 34.24 33.99 34.20 35.26 35.35 36.36 37.13 36.14 36.53 36.88 38.22 38.56 37.56 38.30 37.29 37.75 38.09 37.72 37.31 37.48 37.77 37.15 37.41
MSLP
1017.17 1017.15 1018.47 1019.64 1019.99 1019.88 1019.93 1020.29 1021.22 1023.31 1024.71 1025.00 1025.57 1026.71 1027.74 1028.29 1028.17 1028.03 1027.98 1028.01 1027.93 1027.67 1027.44 1027.35 1027.24 1026.85 1026.61 1026.20 1025.69 1025.29 1024.71 1024.11 1023.55 1022.85 1022.28 1021.64 1020.97 1020.37 1019.82 1019.01 1018.73 1017.93 1017.23 1016.73
1017.56 1018.70 1020.30 1020.82 1020.56 1020.44 1020.41 1020.65 1021.91 1023.74 1024.62 1024.89 1025.63 1026.44 1027.43 1027.83 1028.20 1028.23 1028.31 1028.29 1028.01 1027.61 1027.40 1027.37 1027.27 1026.84 1026.49 1026.09 1025.86 1025.33 1024.77 1024.31 1024.06 1023.62 1022.83 1022.16 1021.39 1020.55 1019.63 1018.99 1018.67 1017.91 1016.88 1016.49
1018.19 1020.46 1021.04 1021.09 1020.98 1020.78 1021.05 1021.41 1022.35 1023.04 1024.35 1024.93 1025.35 1025.60 1026.82 1027.35 1027.90 1028.01 1028.31 1028.44 1028.37 1028.16 1027.82 1027.48 1027.22 1026.86 1026.43 1026.08 1025.85 1025.44 1024.98 1024.74 1024.33 1023.63 1022.86 1022.14 1021.48 1020.48 1019.45 1018.94 1018.44 1017.59 1016.91 1016.26
1020.03 1021.22 1021.38 1021.41 1021.67 1021.86 1021.62 1022.71 1022.79 1022.93 1023.37 1023.50 1024.89 1024.24 1025.81 1026.75 1027.25 1027.78 1028.03 1028.30 1028.34 1028.28 1028.25 1027.91 1027.51 1027.03 1026.54 1026.41 1026.09 1025.67 1025.19 1024.70 1024.07 1023.44 1022.77 1022.20 1021.58 1020.72 1019.85 1019.20 1018.43 1017.53 1016.96 1016.22
1021.26 1021.58 1021.84 1021.93 1022.62 1022.68 1022.85 1022.96 1022.64 1022.57 1022.58 1023.13 1024.05 1024.49 1024.89 1026.69 1026.93 1027.73 1027.96 1028.33 1028.46 1028.42 1028.32 1028.03 1027.74 1027.33 1026.89 1026.58 1026.23 1025.79 1025.16 1024.55 1023.96 1023.55 1022.78 1022.16 1021.55 1020.83 1020.04 1019.26 1018.34 1017.57 1016.75 1016.07
1021.43 1022.50 1022.76 1023.04 1023.25 1023.24 1023.34 1022.85 1022.58 1022.30 1021.95 1021.85 1022.96 1024.02 1024.28 1026.09 1027.72 1028.16 1028.30 1028.56 1028.57 1028.47 1028.35 1028.37 1028.07 1027.63 1027.08 1026.77 1026.40 1025.78 1025.07 1024.66 1023.98 1023.46 1022.77 1022.20 1021.57 1020.74 1020.07 1019.15 1018.19 1017.39 1016.54 1015.77
1021.45 1022.27 1023.12 1023.66 1023.24 1023.44 1022.92 1022.31 1021.12 1020.76 1020.60 1020.96 1022.94 1023.85 1024.10 1026.70 1028.07 1028.71 1028.92 1028.94 1028.80 1028.59 1028.41 1028.29 1028.12 1027.66 1027.31 1026.85 1026.34 1025.75 1025.13 1024.68 1023.81 1023.22 1022.73 1022.10 1021.29 1020.61 1020.10 1019.25 1018.44 1017.46 1016.48 1015.68
1020.92 1022.19 1023.32 1024.07 1024.26 1023.95 1023.41 1022.89 1021.97 1021.51 1020.93 1021.15 1022.90 1023.14 1024.56 1026.81 1028.17 1028.71 1029.26 1029.30 1029.10 1028.96 1028.72 1028.53 1028.36 1028.23 1027.56 1026.98 1026.45 1025.85 1025.19 1024.64 1023.89 1023.12 1022.47 1021.86 1021.23 1020.53 1020.05 1019.36 1018.56 1017.55 1016.64 1015.78
1021.29 1022.58 1024.06 1024.60 1024.88 1025.04 1023.80 1023.63 1024.19 1022.97 1022.76 1022.26 1021.35 1023.12 1025.47 1026.89 1027.45 1028.39 1028.79 1029.04 1029.08 1029.00 1028.91 1028.68 1028.50 1028.59 1027.74 1027.14 1026.57 1026.01 1025.34 1024.73 1023.97 1023.25 1022.53 1021.81 1021.09 1020.44 1019.84 1019.34 1018.34 1017.34 1016.45 1015.60
1021.98 1022.52 1023.85 1024.78 1025.28 1025.32 1024.70 1025.36 1024.72 1023.67 1023.00 1021.86 1020.94 1022.38 1023.62 1026.15 1027.38 1028.22 1028.54 1028.75 1028.87 1029.08 1028.99 1028.91 1028.76 1028.52 1027.85 1027.35 1026.71 1026.11 1025.51 1024.75 1024.03 1023.42 1022.59 1021.83 1021.18 1020.50 1019.81 1019.12 1018.20 1017.18 1016.20 1015.38
1022.56 1022.49 1023.75 1024.40 1024.96 1025.38 1025.57 1025.24 1025.43 1025.10 1024.70 1023.76 1022.83 1022.03 1024.08 1026.23 1027.76 1028.37 1028.57 1028.97 1029.10 1028.98 1029.04 1028.96 1028.78 1028.43 1027.76 1027.49 1026.88 1026.15 1025.46 1024.76 1024.03 1023.39 1022.67 1021.92 1021.37 1020.76 1019.85 1018.87 1018.13 1017.18 1016.20 1015.30
1023.10 1022.62 1022.62 1024.07 1025.63 1026.14 1026.21 1025.99 1025.84 1025.33 1025.47 1025.43 1025.33 1023.86 1025.21 1026.71 1027.93 1028.67 1028.94 1029.25 1029.26 1029.24 1029.12 1028.96 1028.65 1028.16 1027.71 1027.42 1026.99 1026.19 1025.44 1024.83 1024.21 1023.50 1022.68 1022.05 1021.75 1021.11 1020.07 1018.95 1018.19 1017.35 1016.37 1015.39
1023.26 1022.73 1022.51 1023.96 1025.53 1026.05 1026.01 1026.42 1026.72 1026.64 1026.29 1025.57 1025.26 1023.70 1025.65 1026.91 1027.61 1028.30 1028.93 1029.15 1029.22 1029.32 1029.20 1028.93 1028.53 1028.17 1027.78 1027.48 1026.96 1026.23 1025.55 1024.92 1024.32 1023.57 1022.73 1022.13 1021.82 1021.14 1020.33 1019.23 1018.46 1017.64 1016.69 1015.67
1024.02 1023.01 1022.40 1022.85 1023.54 1024.51 1025.48 1026.17 1026.63 1026.37 1025.90 1025.30 1024.40 1023.83 1025.01 1026.49 1027.24 1028.08 1028.72 1029.19 1029.26 1029.25 1029.27 1029.08 1028.72 1028.72 1027.99 1027.62 1027.04 1026.36 1025.68 1025.12 1024.41 1023.63 1022.84 1022.35 1021.86 1021.07 1020.51 1019.61 1018.85 1017.95 1017.07 1016.09
1024.01 1023.02 1022.81 1022.92 1023.65 1024.32 1024.63 1025.24 1026.03 1026.18 1025.22 1025.07 1023.79 1024.58 1024.97 1026.04 1027.25 1028.34 1028.98 1029.25 1029.25 1029.29 1029.40 1029.30 1029.06 1029.04 1028.38 1027.93 1027.19 1026.54 1025.88 1025.31 1024.57 1023.68 1022.99 1022.60 1022.15 1021.17 1020.57 1020.03 1019.36 1018.23 1017.49 1016.62
1024.29 1023.56 1023.25 1022.75 1023.60 1024.04 1024.19 1024.44 1024.94 1025.33 1025.30 1025.01 1024.54 1024.48 1025.37 1026.63 1027.83 1028.32 1028.68 1029.20 1029.25 1029.20 1029.32 1029.35 1029.47 1029.26 1028.49 1027.89 1027.34 1026.66 1026.06 1025.57 1024.75 1023.86 1023.26 1022.83 1022.32 1021.34 1020.70 1020.14 1019.55 1018.80 1017.86 1017.11
1023.98 1023.67 1023.32 1022.52 1023.20 1023.42 1023.23 1022.51 1023.49 1023.84 1024.12 1024.04 1023.95 1024.19 1025.59 1026.71 1027.67 1028.12 1028.70 1028.99 1029.12 1029.42 1029.42 1029.35 1029.39 1029.27 1028.54 1027.92 1027.49 1026.79 1026.28 1025.62 1025.01 1024.16 1023.48 1022.97 1022.42 1021.75 1021.07 1020.33 1019.72 1019.30 1018.30 1017.66
1023.99 1023.90 1023.84 1022.82 1022.62 1022.25 1021.64 1022.48 1022.81 1023.11 1022.96 1023.49 1023.85 1024.63 1025.82 1026.93 1027.47 1028.33 1028.97 1029.34 1029.30 1029.44 1029.40 1029.40 1029.47 1029.31 1028.72 1028.11 1027.53 1027.02 1026.41 1025.88 1025.14 1024.37 1023.67 1023.17 1022.60 1021.96 1021.47 1020.68 1019.86 1019.35 1019.00 1018.52
1024.43 1024.06 1023.87 1023.36 1021.91 1020.54 1021.44 1022.31 1022.77 1022.70 1021.88 1022.26 1023.26 1024.66 1026.02 1027.04 1027.69 1027.88 1028.78 1029.43 1029.63 1029.75 1029.72 1029.35 1029.37 1029.18 1028.74 1028.28 1027.86 1027.13 1026.50 1026.06 1025.24 1024.53 1023.94 1023.36 1022.88 1022.20 1021.60 1021.13 1020.24 1019.72 1019.24 1018.76
1024.73 1024.35 1023.71 1023.38 1022.10 1020.20 1020.19 1021.69 1022.52 1022.65 1021.96 1022.12 1023.23 1024.56 1025.87 1026.88 1026.90 1027.21 1028.78 1029.45 1029.68 1029.70 1029.43 1029.40 1029.47 1029.48 1029.32 1028.62 1028.26 1027.31 1026.62 1026.12 1025.38 1024.83 1024.25 1023.62 1023.14 1022.55 1021.89 1021.45 1021.01 1020.09 1019.47 1019.04
1023.89 1023.99 1023.44 1022.67 1021.76 1019.83 1020.62 1021.93 1022.86 1022.60 1022.03 1022.23 1023.40 1024.51 1025.75 1026.32 1027.00 1027.98 1029.00 1029.32 1029.61 1029.60 1029.58 1029.76 1029.52 1029.47 1029.20 1029.01 1028.30 1027.68 1026.92 1026.34 1025.66 1025.08 1024.44 1023.75 1023.23 1022.71 1022.30 1021.63 1021.20 1020.28 1019.68 1019.13
1021.36 1022.28 1022.31 1022.32 1021.48 1020.38 1021.19 1022.74 1022.45 1021.21 1021.96 1022.69 1023.81 1024.82 1025.73 1026.53 1027.55 1028.27 1028.94 1029.28 1029.53 1029.40 1029.48 1029.40 1029.55 1029.20 1029.04 1029.04 1028.42 1027.77 1027.35 1026.67 1025.83 1025.14 1024.47 1023.79 1023.15 1022.81 1022.41 1021.85 1021.32 1020.59 1019.97 1019.38
1020.44 1020.10 1020.12 1019.93 1018.53 1019.04 1020.13 1020.48 1021.10 1021.46 1021.98 1023.18 1023.99 1025.09 1025.71 1026.72 1027.45 1028.21 1028.87 1029.30 1029.38 1029.20 1029.24 1029.21 1029.29 1029.15 1028.86 1028.90 1028.55 1028.01 1027.65 1026.67 1025.86 1025.16 1024.52 1023.91 1023.28 1022.82 1022.44 1021.96 1021.47 1020.92 1020.43 1019.97
1019.47 1019.84 1019.56 1019.13 1018.16 1018.68 1019.68 1020.93 1021.52 1022.05 1022.38 1023.36 1024.21 1025.15 1025.92 1026.68 1027.52 1028.28 1028.93 1029.11 1029.22 1029.28 1029.47 1029.34 1029.36 1028.91 1028.81 1028.94 1028.77 1028.54 1027.90 1026.74 1025.86 1025.21 1024.66 1024.07 1023.50 1023.07 1022.69 1022.33 1021.93 1021.41 1021.11 1020.65
1018.73 1019.20 1018.23 1017.78 1017.58 1019.02 1019.53 1020.06 1021.06 1022.22 1022.93 1023.76 1024.67 1025.40 1026.01 1026.75 1027.57 1028.22 1028.81 1029.12 1029.20 1029.40 1029.63 1029.53 1029.25 1029.16 1029.05 1028.74 1028.46 1028.35 1027.88 1026.89 1025.95 1025.42 1024.95 1024.35 1023.86 1023.38 1022.97 1022.68 1022.63 1022.23 1021.99 1021.82
1017.31 1016.40 1016.31 1015.09 1015.30 1016.42 1017.11 1018.61 1020.45 1021.74 1022.65 1023.59 1024.48 1025.54 1026.37 1026.85 1027.49 1028.23 1028.64 1028.98 1029.11 1029.28 1029.51 1029.32 1029.33 1029.37 1029.08 1028.68 1028.56 1028.28 1027.78 1027.00 1026.14 1025.51 1025.09 1024.86 1024.29 1023.76 1023.31 1022.86 1022.53 1022.71 1022.59 1022.31
Wind_Speed
7 7 8 7 5 4 1 1 3 6 4 4 5 10 7 2 8 13 15 16 17 19 17 17 16 16 16 17 17 18 17 18 15 13 14 13 13 11 11 10 14 16 11 12
5 7 3 0 4 2 3 3 4 6 3 5 8 7 5 3 5 11 15 16 18 19 19 17 18 16 16 18 18 17 18 18 15 13 12 11 12 12 11 9 13 15 14 13
7 5 2 3 9 1 3 3 1 4 5 2 6 8 7 3 5 11 13 14 16 18 18 18 18 17 17 18 18 18 19 20 16 17 11 11 11 11 10 12 10 10 16 13
8 5 2 0 4 6 0 3 5 5 7 2 3 2 5 2 4 12 14 14 16 18 17 16 18 18 17 18 16 18 18 17 15 18 13 17 11 12 12 10 10 9 13 14
5 4 7 4 4 4 5 1 1 5 4 4 6 6 7 1 5 15 16 15 16 17 16 17 18 18 17 16 16 16 18 17 17 17 16 12 14 11 10 10 15 12 12 12
5 2 3 5 1 2 1 4 6 4 3 5 4 4 7 2 8 12 14 15 17 17 15 16 16 16 15 16 16 16 18 18 18 17 17 17 16 17 13 14 11 10 9 10
3 3 2 3 2 4 1 4 2 4 4 4 4 5 5 6 4 9 13 14 16 16 15 15 17 16 17 17 17 16 18 18 18 18 17 17 17 17 15 15 12 14 10 10
3 5 5 7 5 4 5 5 4 6 5 5 3 4 5 6 3 8 8 10 13 15 14 15 15 16 16 17 17 18 18 18 18 18 17 15 16 11 11 12 11 10 10 11
2 4 3 5 4 4 3 3 3 3 0 4 1 4 5 5 5 9 10 11 15 16 14 15 15 14 15 15 16 17 17 17 17 18 16 16 15 15 14 15 14 11 13 11
3 2 1 3 2 9 5 4 2 1 5 6 2 4 3 6 8 10 11 11 13 14 14 13 13 13 13 14 14 15 16 16 17 17 15 14 15 16 15 13 16 17 16 15
1 3 4 4 3 4 2 3 4 1 4 4 6 4 4 6 5 8 9 10 13 13 12 12 12 12 12 13 14 14 15 16 16 15 16 16 15 16 15 14 15 16 17 16
1 2 1 4 4 2 2 1 3 2 2 1 3 4 6 6 4 5 8 9 12 12 11 11 11 12 13 13 14 14 14 15 15 15 15 15 16 14 15 15 16 17 17 17
4 2 3 6 5 3 4 3 2 5 1 6 3 2 5 5 5 3 7 9 11 12 11 11 11 12 13 13 13 14 14 15 15 14 15 16 15 14 15 16 17 17 17 18
2 2 5 4 3 4 4 6 6 4 4 4 9 10 3 3 5 6 7 9 11 10 10 11 11 12 13 13 13 14 14 14 15 14 15 15 16 15 15 15 16 17 17 17
3 4 2 1 1 3 4 6 12 9 6 6 4 7 11 7 4 5 5 8 10 11 11 11 11 11 13 13 13 14 14 14 15 14 14 15 15 15 15 15 15 15 16 16
3 2 2 2 3 5 6 10 11 13 11 16 16 16 3 4 1 3 3 7 9 10 10 10 12 12 12 13 13 14 14 14 14 14 14 14 14 14 16 14 14 15 15 17
5 4 3 2 2 4 8 12 16 7 8 5 6 1 7 3 1 2 3 5 8 10 9 9 11 11 12 12 13 13 13 12 13 14 13 13 14 14 15 15 14 12 15 16
6 4 1 3 2 3 4 2 3 12 8 16 6 5 4 2 1 3 2 6 9 9 8 9 9 10 11 11 12 12 11 12 12 13 13 13 13 13 13 14 15 14 12 13
3 4 2 2 3 5 3 6 7 7 3 15 13 6 5 4 2 4 4 4 7 8 7 8 8 9 10 11 12 11 11 12 12 13 13 13 12 13 13 14 14 13 12 12
4 3 1 2 2 4 3 6 4 3 4 9 10 10 9 6 4 3 3 3 6 6 6 8 8 8 10 11 11 11 11 12 13 13 13 12 12 11 13 12 12 11 10 11
4 2 4 4 4 7 5 11 7 3 3 12 11 11 11 6 2 6 1 2 3 5 6 7 6 6 8 10 10 10 11 12 12 11 11 11 11 10 10 11 10 11 11 11
8 9 5 3 3 6 13 9 7 4 5 12 11 11 10 6 5 3 1 2 2 4 5 5 5 5 7 8 9 10 10 12 11 11 10 10 10 9 8 10 10 11 12 12
5 4 2 9 3 5 20 2 4 6 10 9 12 11 10 9 6 4 2 1 2 4 4 4 4 5 6 8 9 10 10 11 11 10 10 10 10 9 9 9 10 8 11 10
6 5 4 3 5 10 16 8 6 7 9 13 11 13 11 10 7 4 2 1 1 3 4 3 4 4 6 8 9 9 10 11 10 10 10 9 9 10 9 7 7 7 9 10
2 10 6 7 6 2 11 17 13 11 12 13 13 13 11 10 8 5 4 2 2 4 4 3 4 4 6 7 7 8 10 11 10 9 9 9 7 8 7 7 7 8 8 10
10 9 8 6 7 2 4 20 19 18 18 17 17 14 11 10 9 7 5 3 2 2 2 3 3 4 5 6 7 8 8 10 9 8 7 8 7 6 6 6 6 8 9 11
Wind_Direction
33 69 57 29 340 321 311 185 107 109 129 202 217 168 158 83 14 6 3 359 353 353 356 358 354 352 352 353 353 352 349 351 349 343 341 336 335 333 328 328 328 328 312 315
131 69 29 338 40 156 170 154 84 104 127 252 173 189 190 258 11 4 0 355 352 349 354 355 354 353 357 353 356 351 352 351 354 341 336 329 330 329 322 334 325 322 329 323
71 30 325 223 38 80 79 358 130 336 143 93 184 206 218 202 262 1 5 357 353 355 348 351 353 352 357 358 355 355 354 353 345 341 327 334 328 324 332 331 321 324 330 324
66 37 29 143 66 341 184 30 275 201 208 341 218 348 186 304 287 6 357 359 354 355 352 351 352 352 360 357 352 354 356 350 343 345 338 340 331 324 328 323 316 320 329 326
76 34 22 40 17 335 34 348 152 183 180 217 170 257 104 264 334 2 348 356 357 354 353 351 353 351 358 356 355 351 350 351 352 349 344 342 340 330 335 330 332 335 327 326
85 87 20 357 356 42 48 134 114 163 218 235 121 283 141 70 349 340 339 352 352 352 354 352 352 351 357 360 356 350 352 356 346 347 347 344 339 337 336 342 339 335 329 330
160 68 79 5 249 188 220 235 234 214 219 6 148 243 27 133 4 342 338 344 347 352 353 353 353 354 358 357 355 354 353 354 351 345 349 345 343 343 341 342 342 332 331 332
229 173 10 3 25 338 27 343 2 297 326 332 169 247 83 148 351 350 347 341 349 352 353 353 356 355 350 357 354 354 353 352 354 349 349 347 347 346 343 344 331 326 331 328
188 115 115 58 41 302 62 39 5 285 263 271 224 141 160 203 308 359 355 350 356 353 353 353 3 359 347 355 355 353 351 352 353 351 350 350 349 348 347 344 334 336 335 330
105 159 80 115 227 61 7 105 220 125 337 301 237 287 50 194 346 350 354 350 354 351 352 354 360 359 355 350 351 351 352 352 354 353 352 348 351 353 349 345 345 346 344 342
214 275 121 198 28 19 153 147 71 59 323 304 309 80 86 123 2 334 341 348 351 353 353 353 352 353 1 355 353 349 353 354 357 355 352 353 352 351 348 355 350 347 349 350
85 306 207 61 93 47 10 17 305 278 177 63 299 289 148 138 15 325 342 347 347 352 353 352 353 349 358 359 351 350 353 355 354 352 352 356 355 349 347 359 358 353 354 358
163 179 235 170 177 189 240 150 115 110 107 210 267 28 156 193 313 357 346 345 352 351 353 353 358 5 357 358 350 352 352 353 352 351 350 358 358 356 352 358 360 358 357 2
241 226 281 312 24 98 183 189 198 234 228 156 240 298 182 232 325 357 359 346 347 353 352 354 358 9 349 354 352 352 352 353 352 353 356 1 357 2 0 356 360 3 3 7
250 254 226 267 177 204 237 205 193 204 247 237 24 267 308 329 334 358 335 339 342 356 354 355 356 355 349 349 351 352 353 353 351 353 359 3 355 3 9 5 1 3 8 12
181 195 225 242 183 229 256 234 222 231 250 259 274 285 75 125 115 282 314 343 343 349 349 353 349 353 357 350 352 350 353 352 348 353 0 3 358 1 13 9 12 355 15 17
181 169 204 249 162 268 254 231 201 194 215 228 231 87 167 163 244 299 293 331 338 345 345 350 349 345 346 356 344 350 353 349 347 352 358 2 3 7 5 14 14 12 15 14
155 143 131 296 246 259 82 91 215 225 241 215 241 194 190 76 219 276 208 328 334 342 341 346 347 342 344 354 351 349 349 358 349 355 359 360 1 9 7 2 17 18 20 16
342 140 112 276 267 327 187 197 184 194 298 212 223 180 165 150 264 202 193 329 324 332 338 336 342 341 342 359 350 350 358 351 355 360 358 357 358 2 9 11 6 17 21 18
86 56 247 144 248 256 78 151 164 162 246 176 186 167 164 172 231 120 163 323 330 335 331 342 349 348 346 357 346 357 354 354 357 357 353 353 359 358 7 12 6 3 19 21
161 164 210 193 258 277 120 144 157 221 58 158 169 158 161 192 33 100 121 306 334 332 344 357 7 350 351 356 347 359 351 354 348 352 351 356 360 4 5 8 9 9 14 22
176 158 185 134 217 278 148 127 206 93 123 147 159 160 168 157 155 161 137 331 339 351 1 355 6 352 1 2 349 358 355 340 344 350 354 1 2 11 5 5 10 14 16 18
214 220 196 212 226 101 185 42 152 158 150 162 158 164 166 160 178 165 121 333 356 339 358 352 349 336 7 7 354 358 345 340 343 351 359 3 4 15 13 11 8 12 16 21
216 177 239 294 164 210 192 189 183 171 156 154 155 159 165 163 169 164 148 238 309 358 343 335 345 353 6 13 4 1 343 336 346 351 357 1 10 9 18 17 8 12 14 10
74 155 193 254 223 177 220 204 177 161 151 151 151 160 168 160 169 166 153 189 267 2 359 320 345 345 8 5 7 358 349 336 352 354 353 0 6 12 18 29 22 10 27 13
189 176 188 232 162 188 126 184 171 161 166 160 156 162 168 169 162 166 158 178 222 23 10 303 337 334 354 0 9 360 355 332 353 357 357 1 354 2 13 20 33 59 25 18